| time (UTC) | temp C | wind direction | speed KPH | gust KPH | rain 1hr cm | rain 24hr cm | rain mn cm | humidity % | barometer mb |
| 20260906030554 | 22 | 282 | 0.0 | 0.0 | 0.00 | 4.27 | 4.29 | 87 | 1012.4 |
| 20260906025612 | 22 | 270 | 0.0 | 0.0 | 0.00 | 4.27 | 4.29 | 87 | 1012.3 |
| 20260906024539 | 22 | 267 | 0.0 | 0.0 | 0.00 | 4.27 | 4.29 | 86 | 1012.3 |
| 20260906023509 | 22 | 274 | 0.0 | 0.0 | 0.00 | 4.27 | 4.29 | 86 | 1012.2 |
| 20260906022528 | 22 | 267 | 0.0 | 0.0 | 0.00 | 4.27 | 4.29 | 86 | 1012.2 |
| 20260906020351 | 22 | 282 | 0.0 | 0.0 | 0.00 | 4.27 | 4.29 | 86 | 1012.1 |
| 20260906015406 | 22 | 285 | 0.0 | 0.0 | 0.00 | 4.27 | 4.29 | 86 | 1011.9 |
| 20260906014339 | 22 | 275 | 0.0 | 0.0 | 0.00 | 4.27 | 4.29 | 86 | 1011.9 |
| 20260906013347 | 22 | 200 | 0.0 | 0.0 | 0.00 | 4.27 | 4.29 | 87 | 1011.8 |
| 20260906012403 | 22 | 300 | 0.0 | 0.0 | 0.00 | 4.27 | 4.29 | 86 | 1011.6 |
| 20260906011421 | 22 | 282 | 0.0 | 0.0 | 0.00 | 4.27 | 4.29 | 86 | 1011.4 |
| 20260906010351 | 22 | 316 | 0.0 | 0.0 | 0.00 | 4.27 | 4.29 | 86 | 1011.3 |
| 20260906005326 | 22 | 285 | 0.0 | 0.0 | 0.00 | 4.27 | 4.29 | 85 | 1011.2 |
| 20260906004254 | 22 | 296 | 0.0 | 0.0 | 0.00 | 4.27 | 4.29 | 85 | 1011.1 |
| 20260906003227 | 22 | 299 | 0.0 | 0.0 | 0.00 | 4.27 | 4.29 | 86 | 1011.2 |
| 20260906002248 | 22 | 281 | 0.0 | 0.0 | 0.00 | 4.27 | 4.29 | 86 | 1011.3 |
| 20260906000109 | 23 | 222 | 0.0 | 0.0 | 0.00 | 4.27 | 4.29 | 86 | 1011.4 |
| 20260905235123 | 23 | 254 | 0.0 | 3.2 | 0.00 | 4.27 | 4.29 | 86 | 1011.4 |
| 20260905234049 | 23 | 292 | 0.0 | 0.0 | 0.00 | 4.27 | 4.29 | 86 | 1011.1 |
| 20260905233030 | 23 | 197 | 0.0 | 0.0 | 0.00 | 4.27 | 4.29 | 86 | 1011.0 |
| 20260905232054 | 23 | 266 | 0.0 | 0.0 | 0.00 | 4.27 | 4.29 | 85 | 1010.9 |
| 20260905230019 | 24 | 304 | 0.0 | 0.0 | 0.00 | 4.27 | 4.29 | 85 | 1010.5 |
| 20260905225007 | 24 | 284 | 0.0 | 1.6 | 0.00 | 4.27 | 4.29 | 83 | 1010.4 |
| 20260905222908 | 25 | 305 | 0.0 | 0.0 | 0.00 | 4.27 | 4.29 | 82 | 1010.0 |
| 20260905220736 | 25 | 243 | 0.0 | 0.0 | 0.00 | 4.27 | 4.29 | 80 | 1009.7 |
| 20260905214626 | 26 | 275 | 0.0 | 0.0 | 0.00 | 4.27 | 4.29 | 79 | 1009.6 |
| 20260905213626 | 26 | 323 | 0.0 | 0.0 | 0.00 | 4.27 | 4.29 | 80 | 1009.3 |
| 20260905212634 | 26 | 297 | 0.0 | 0.0 | 0.00 | 4.27 | 4.29 | 78 | 1009.4 |
| 20260905211640 | 26 | 273 | 0.0 | 4.8 | 0.00 | 4.27 | 4.29 | 78 | 1009.4 |
| 20260905205553 | 27 | 323 | 0.0 | 0.0 | 0.00 | 4.27 | 4.29 | 78 | 1009.6 |
| 20260905204537 | 27 | 291 | 0.0 | 0.0 | 0.00 | 4.27 | 4.29 | 79 | 1009.6 |
| 20260905203505 | 26 | 280 | 0.0 | 0.0 | 0.00 | 4.27 | 4.29 | 80 | 1009.6 |
| 20260905202519 | 26 | 316 | 0.0 | 0.0 | 0.00 | 4.27 | 4.29 | 81 | 1009.9 |
| 20260905200423 | 26 | 247 | 0.0 | 0.0 | 0.00 | 4.27 | 4.29 | 82 | 1009.9 |
| 20260905195404 | 26 | 201 | 0.0 | 0.0 | 0.00 | 4.27 | 4.29 | 82 | 1009.9 |
| 20260905194408 | 26 | 207 | 0.0 | 0.0 | 0.00 | 4.27 | 4.29 | 82 | 1010.1 |
| 20260905193342 | 26 | 207 | 0.0 | 0.0 | 0.00 | 4.27 | 4.29 | 81 | 1010.1 |
| 20260905192327 | 26 | 186 | 0.0 | 0.0 | 0.00 | 4.27 | 4.29 | 81 | 1010.1 |
| 20260905190156 | 26 | 186 | 0.0 | 0.0 | 0.00 | 4.27 | 4.29 | 80 | 1010.2 |
| 20260905185155 | 26 | 186 | 0.0 | 0.0 | 0.00 | 4.27 | 4.29 | 81 | 1010.2 |
| 20260905184123 | 26 | 169 | 0.0 | 0.0 | 0.00 | 4.27 | 4.29 | 79 | 1010.3 |
| 20260905183122 | 26 | 169 | 0.0 | 0.0 | 0.00 | 4.27 | 4.29 | 80 | 1010.3 |
| 20260905182057 | 26 | 164 | 0.0 | 0.0 | 0.00 | 4.27 | 4.29 | 79 | 1010.3 |
| 20260905181046 | 26 | 186 | 0.0 | 0.0 | 0.00 | 4.27 | 4.29 | 79 | 1010.3 |
| 20260905180029 | 26 | 161 | 0.0 | 0.0 | 0.00 | 4.27 | 4.29 | 79 | 1010.4 |
| 20260905175025 | 27 | 94 | 0.0 | 0.0 | 0.00 | 4.27 | 4.29 | 78 | 1010.3 |
| 20260905174006 | 26 | 165 | 0.0 | 0.0 | 0.00 | 4.27 | 4.29 | 79 | 1010.3 |
| 20260905172954 | 26 | 28 | 0.0 | 0.0 | 0.00 | 4.27 | 4.29 | 79 | 1010.4 |
| 20260905171928 | 26 | 185 | 0.0 | 0.0 | 0.00 | 4.27 | 4.29 | 80 | 1010.4 |
| 20260905170920 | 26 | 182 | 0.0 | 0.0 | 0.00 | 4.27 | 4.29 | 81 | 1010.7 |
| 20260905165921 | 25 | 163 | 0.0 | 0.0 | 0.00 | 4.27 | 4.29 | 83 | 1010.9 |
| 20260905164941 | 25 | 156 | 0.0 | 0.0 | 0.00 | 4.27 | 4.29 | 82 | 1011.1 |
| 20260905163929 | 25 | 169 | 0.0 | 0.0 | 0.00 | 4.27 | 4.29 | 82 | 1011.2 |
| 20260905162917 | 25 | 131 | 0.0 | 0.0 | 0.00 | 4.27 | 4.29 | 81 | 1011.1 |
| 20260905161907 | 26 | 173 | 0.0 | 0.0 | 0.00 | 4.27 | 4.29 | 81 | 1010.9 |
| 20260905155653 | 25 | 200 | 0.0 | 0.0 | 0.00 | 4.27 | 4.29 | 82 | 1010.9 |
| 20260905153505 | 24 | 178 | 0.0 | 0.0 | 0.00 | 4.27 | 4.29 | 86 | 1010.7 |
| 20260905152517 | 24 | 127 | 0.0 | 0.0 | 0.00 | 4.27 | 4.29 | 86 | 1011.2 |
| 20260905151448 | 24 | 191 | 0.0 | 0.0 | 0.00 | 4.27 | 4.29 | 88 | 1010.9 |
| 20260905145300 | 22 | 196 | 0.0 | 0.0 | 0.00 | 4.27 | 4.29 | 88 | 1011.0 |
| 20260905144316 | 22 | 205 | 0.0 | 0.0 | 0.00 | 4.27 | 4.29 | 87 | 1011.0 |
| 20260905143253 | 22 | 175 | 0.0 | 0.0 | 0.00 | 4.27 | 4.29 | 86 | 1011.0 |
| 20260905134918 | 21 | 67 | 0.0 | 0.0 | 0.00 | 4.27 | 4.27 | 85 | 1010.6 |
| 20260905133917 | 21 | 55 | 0.0 | 0.0 | 0.00 | 4.27 | 4.27 | 85 | 1010.6 |
| 20260905130610 | 21 | 126 | 0.0 | 0.0 | 0.00 | 4.27 | 4.27 | 85 | 1010.0 |
| 20260905124443 | 21 | 88 | 0.0 | 0.0 | 0.00 | 4.27 | 4.27 | 85 | 1010.0 |
| 20260905123503 | 21 | 88 | 0.0 | 0.0 | 0.00 | 4.27 | 4.27 | 85 | 1010.0 |
| 20260905122438 | 20 | 88 | 0.0 | 0.0 | 0.00 | 4.27 | 4.27 | 85 | 1010.2 |
| 20260905120326 | 20 | 88 | 0.0 | 0.0 | 0.00 | 4.27 | 4.27 | 85 | 1010.0 |
| 20260905115337 | 20 | 88 | 0.0 | 0.0 | 0.00 | 4.27 | 4.27 | 85 | 1010.2 |
| 20260905114328 | 20 | 88 | 0.0 | 0.0 | 0.00 | 4.27 | 4.27 | 85 | 1010.1 |
| 20260905113254 | 20 | 88 | 0.0 | 0.0 | 0.00 | 4.27 | 4.27 | 85 | 1010.1 |
| 20260905112316 | 20 | 88 | 0.0 | 0.0 | 0.00 | 4.27 | 4.27 | 85 | 1010.0 |
| 20260905111250 | 20 | 123 | 0.0 | 0.0 | 0.00 | 4.27 | 4.27 | 85 | 1009.7 |
| 20260905103856 | 20 | 325 | 0.0 | 0.0 | 0.00 | 4.27 | 4.27 | 85 | 1009.5 |
| 20260905101717 | 20 | 219 | 0.0 | 0.0 | 0.00 | 4.24 | 4.27 | 85 | 1009.5 |